Year,Month,Day,Hour,Minute,Value (Times are PST for windgust in km/hr)
2012,03,14,00,00,8.10
2012,03,14,00,01,11.30
2012,03,14,00,02,11.30
2012,03,14,00,03,4.80
2012,03,14,00,04,9.60
2012,03,14,00,05,8.10
2012,03,14,00,06,11.30
2012,03,14,00,07,16.10
2012,03,14,00,08,6.40
2012,03,14,00,09,6.40
2012,03,14,00,10,20.90
2012,03,14,00,11,11.30
2012,03,14,00,12,8.10
2012,03,14,00,13,9.60
2012,03,14,00,14,9.60
2012,03,14,00,15,11.30
2012,03,14,00,16,11.30
2012,03,14,00,17,8.10
2012,03,14,00,18,4.80
2012,03,14,00,19,6.40
2012,03,14,00,20,11.30
2012,03,14,00,21,9.60
2012,03,14,00,22,17.70
2012,03,14,00,23,8.10
2012,03,14,00,24,4.80
2012,03,14,00,25,1.60
2012,03,14,00,26,6.40
2012,03,14,00,27,11.30
2012,03,14,00,28,9.60
2012,03,14,00,29,9.60
2012,03,14,00,30,6.40
2012,03,14,00,31,8.10
2012,03,14,00,32,17.70
2012,03,14,00,33,6.40
2012,03,14,00,34,4.80
2012,03,14,00,35,4.80
2012,03,14,00,36,16.10
2012,03,14,00,37,9.60
2012,03,14,00,38,6.40
2012,03,14,00,39,8.10
2012,03,14,00,40,1.60
2012,03,14,00,41,6.40
2012,03,14,00,42,6.40
2012,03,14,00,43,1.60
2012,03,14,00,44,4.80
2012,03,14,00,45,4.80
2012,03,14,00,46,8.10
2012,03,14,00,47,6.40
2012,03,14,00,48,3.20
2012,03,14,00,49,11.30
2012,03,14,00,50,8.10
2012,03,14,00,51,12.90
2012,03,14,00,52,9.60
2012,03,14,00,53,8.10
2012,03,14,00,54,4.80
2012,03,14,00,55,9.60
2012,03,14,00,56,9.60
2012,03,14,00,57,6.40
2012,03,14,00,59,9.60
2012,03,14,01,00,9.60
2012,03,14,01,01,6.40
2012,03,14,01,02,4.80
2012,03,14,01,03,6.40
2012,03,14,01,04,6.40
2012,03,14,01,05,8.10
2012,03,14,01,06,11.30
2012,03,14,01,07,4.80
2012,03,14,01,08,6.40
2012,03,14,01,09,9.60
2012,03,14,01,10,9.60
2012,03,14,01,11,1.60
2012,03,14,01,12,3.20
2012,03,14,01,13,6.40
2012,03,14,01,14,1.60
2012,03,14,01,15,6.40
2012,03,14,01,16,9.60
2012,03,14,01,17,11.30
2012,03,14,01,18,6.40
2012,03,14,01,19,6.40
2012,03,14,01,20,4.80
2012,03,14,01,21,12.90
2012,03,14,01,22,16.10
2012,03,14,01,23,17.70
2012,03,14,01,24,16.10
2012,03,14,01,25,8.10
2012,03,14,01,26,9.60
2012,03,14,01,27,9.60
2012,03,14,01,28,4.80
2012,03,14,01,29,3.20
2012,03,14,01,30,14.50
2012,03,14,01,31,9.60
2012,03,14,01,32,8.10
2012,03,14,01,33,3.20
2012,03,14,01,34,1.60
2012,03,14,01,35,6.40
2012,03,14,01,36,3.20
2012,03,14,01,37,3.20
2012,03,14,01,38,4.80
2012,03,14,01,39,3.20
2012,03,14,01,40,6.40
2012,03,14,01,41,8.10
2012,03,14,01,42,1.60
2012,03,14,01,43,9.60
2012,03,14,01,44,8.10
2012,03,14,01,45,3.20
2012,03,14,01,46,1.60
2012,03,14,01,47,4.80
2012,03,14,01,48,11.30
2012,03,14,01,49,8.10
2012,03,14,01,50,6.40
2012,03,14,01,51,11.30
2012,03,14,01,52,9.60
2012,03,14,01,53,9.60
2012,03,14,01,54,4.80
2012,03,14,01,55,3.20
2012,03,14,01,56,3.20
2012,03,14,01,57,9.60
2012,03,14,01,58,4.80
2012,03,14,01,59,6.40
2012,03,14,02,00,4.80
2012,03,14,02,01,6.40
2012,03,14,02,02,4.80
2012,03,14,02,03,4.80
2012,03,14,02,04,8.10
2012,03,14,02,05,6.40
2012,03,14,02,06,4.80
2012,03,14,02,07,3.20
2012,03,14,02,08,3.20
2012,03,14,02,09,9.60
2012,03,14,02,10,8.10
2012,03,14,02,11,3.20
2012,03,14,02,12,9.60
2012,03,14,02,13,9.60
2012,03,14,02,14,6.40
2012,03,14,02,15,6.40
2012,03,14,02,16,8.10
2012,03,14,02,17,4.80
2012,03,14,02,18,14.50
2012,03,14,02,19,3.20
2012,03,14,02,20,6.40
2012,03,14,02,21,3.20
2012,03,14,02,22,6.40
2012,03,14,02,23,11.30
2012,03,14,02,24,9.60
2012,03,14,02,25,9.60
2012,03,14,02,26,8.10
2012,03,14,02,27,14.50
2012,03,14,02,28,9.60
2012,03,14,02,29,8.10
2012,03,14,02,30,6.40
2012,03,14,02,31,4.80
2012,03,14,02,32,4.80
2012,03,14,02,33,3.20
2012,03,14,02,34,14.50
2012,03,14,02,35,8.10
2012,03,14,02,36,4.80
2012,03,14,02,37,6.40
2012,03,14,02,38,3.20
2012,03,14,02,39,4.80
2012,03,14,02,40,4.80
2012,03,14,02,41,6.40
2012,03,14,02,42,4.80
2012,03,14,02,43,8.10
2012,03,14,02,44,11.30
2012,03,14,02,45,4.80
2012,03,14,02,46,3.20
2012,03,14,02,47,9.60
2012,03,14,02,48,4.80
2012,03,14,02,49,8.10
2012,03,14,02,50,6.40
2012,03,14,02,51,9.60
2012,03,14,02,52,9.60
2012,03,14,02,53,1.60
2012,03,14,02,54,8.10
2012,03,14,02,55,6.40
2012,03,14,02,56,3.20
2012,03,14,02,57,3.20
2012,03,14,02,58,1.60
2012,03,14,02,59,4.80
2012,03,14,03,00,8.10
2012,03,14,03,01,6.40
2012,03,14,03,02,3.20
2012,03,14,03,03,1.60
2012,03,14,03,04,3.20
2012,03,14,03,06,3.20
2012,03,14,03,08,1.60
2012,03,14,03,10,1.60
2012,03,14,03,12,1.60
2012,03,14,03,14,1.60
2012,03,14,03,17,1.60
2012,03,14,03,20,4.80
2012,03,14,03,22,1.60
2012,03,14,03,23,3.20
2012,03,14,03,26,1.60
2012,03,14,03,27,3.20
2012,03,14,03,28,1.60
2012,03,14,03,29,3.20
2012,03,14,03,39,1.60
2012,03,14,03,40,1.60
2012,03,14,03,43,4.80
2012,03,14,03,44,1.60
2012,03,14,03,45,1.60
2012,03,14,03,46,6.40
2012,03,14,03,47,4.80
2012,03,14,03,48,4.80
2012,03,14,03,49,1.60
2012,03,14,03,50,3.20
2012,03,14,03,51,1.60
2012,03,14,03,53,1.60
2012,03,14,03,54,1.60
2012,03,14,03,56,1.60
2012,03,14,03,58,4.80
2012,03,14,03,59,3.20
2012,03,14,04,00,6.40
2012,03,14,04,01,1.60
2012,03,14,04,02,1.60
2012,03,14,04,03,3.20
2012,03,14,04,04,1.60
2012,03,14,04,06,4.80
2012,03,14,04,09,1.60
2012,03,14,04,10,4.80
2012,03,14,04,12,3.20
2012,03,14,04,13,4.80
2012,03,14,04,14,3.20
2012,03,14,04,15,1.60
2012,03,14,04,16,4.80
2012,03,14,04,17,1.60
2012,03,14,04,18,1.60
2012,03,14,04,19,1.60
2012,03,14,04,20,4.80
2012,03,14,04,21,3.20
2012,03,14,04,22,1.60
2012,03,14,04,23,1.60
2012,03,14,04,24,4.80
2012,03,14,04,25,1.60
2012,03,14,04,26,8.10
2012,03,14,04,27,11.30
2012,03,14,04,28,6.40
2012,03,14,04,29,14.50
2012,03,14,04,30,9.60
2012,03,14,04,31,6.40
2012,03,14,04,32,4.80
2012,03,14,04,33,9.60
2012,03,14,04,34,11.30
2012,03,14,04,35,16.10
2012,03,14,04,36,24.20
2012,03,14,04,37,27.40
2012,03,14,04,38,14.50
2012,03,14,04,39,16.10
2012,03,14,04,40,11.30
2012,03,14,04,41,20.90
2012,03,14,04,42,24.20
2012,03,14,04,43,27.40
2012,03,14,04,44,16.10
2012,03,14,04,45,19.30
2012,03,14,04,46,19.30
2012,03,14,04,47,27.40
2012,03,14,04,48,17.70
2012,03,14,04,49,17.70
2012,03,14,04,50,25.70
2012,03,14,04,51,22.50
2012,03,14,04,52,14.50
2012,03,14,04,53,27.40
2012,03,14,04,54,16.10
2012,03,14,04,55,20.90
2012,03,14,04,56,20.90
2012,03,14,04,57,17.70
2012,03,14,04,58,16.10
2012,03,14,04,59,20.90
2012,03,14,05,00,29.00
2012,03,14,05,01,19.30
2012,03,14,05,02,8.10
2012,03,14,05,03,19.30
2012,03,14,05,04,14.50
2012,03,14,05,07,22.50
2012,03,14,05,08,16.10
2012,03,14,05,10,16.10
2012,03,14,05,12,22.50
2012,03,14,05,13,20.90
2012,03,14,05,14,22.50
2012,03,14,05,15,14.50
2012,03,14,05,16,19.30
2012,03,14,05,17,19.30
2012,03,14,05,18,8.10
2012,03,14,05,19,9.60
2012,03,14,05,20,20.90
2012,03,14,05,21,19.30
2012,03,14,05,22,19.30
2012,03,14,05,23,12.90
2012,03,14,05,24,11.30
2012,03,14,05,25,16.10
2012,03,14,05,26,20.90
2012,03,14,05,27,17.70
2012,03,14,05,28,16.10
2012,03,14,05,29,17.70
2012,03,14,05,30,24.20
2012,03,14,05,31,16.10
2012,03,14,05,32,25.70
2012,03,14,05,33,30.60
2012,03,14,05,34,19.30
2012,03,14,05,35,22.50
2012,03,14,05,36,30.60
2012,03,14,05,37,24.20
2012,03,14,05,38,25.70
2012,03,14,05,39,14.50
2012,03,14,05,40,29.00
2012,03,14,05,41,20.90
2012,03,14,05,42,17.70
2012,03,14,05,43,19.30
2012,03,14,05,44,22.50
2012,03,14,05,45,16.10
2012,03,14,05,46,20.90
2012,03,14,05,47,22.50
2012,03,14,05,48,14.50
2012,03,14,05,49,27.40
2012,03,14,05,50,41.80
2012,03,14,05,51,22.50
2012,03,14,05,52,24.20
2012,03,14,05,53,16.10
2012,03,14,05,54,22.50
2012,03,14,05,55,32.20
2012,03,14,05,56,20.90
2012,03,14,05,57,22.50
2012,03,14,05,58,33.80
2012,03,14,05,59,35.40
2012,03,14,06,00,35.40
2012,03,14,06,01,17.70
2012,03,14,06,02,20.90
2012,03,14,06,03,22.50
2012,03,14,06,04,11.30
2012,03,14,06,05,29.00
2012,03,14,06,06,25.70
2012,03,14,06,07,20.90
2012,03,14,06,08,25.70
2012,03,14,06,09,22.50
2012,03,14,06,10,17.70
2012,03,14,06,11,20.90
2012,03,14,06,12,17.70
2012,03,14,06,13,24.20
2012,03,14,06,14,30.60
2012,03,14,06,15,37.00
2012,03,14,06,16,20.90
2012,03,14,06,17,22.50
2012,03,14,06,18,20.90
2012,03,14,06,19,20.90
2012,03,14,06,20,20.90
2012,03,14,06,21,33.80
2012,03,14,06,22,30.60
2012,03,14,06,23,22.50
2012,03,14,06,24,27.40
2012,03,14,06,25,22.50
2012,03,14,06,26,24.20
2012,03,14,06,27,24.20
2012,03,14,06,28,20.90
2012,03,14,06,29,19.30
2012,03,14,06,30,29.00
2012,03,14,06,31,38.60
2012,03,14,06,32,32.20
2012,03,14,06,33,17.70
2012,03,14,06,34,24.20
2012,03,14,06,35,35.40
2012,03,14,06,36,22.50
2012,03,14,06,37,30.60
2012,03,14,06,38,29.00
2012,03,14,06,39,20.90
2012,03,14,06,40,22.50
2012,03,14,06,41,24.20
2012,03,14,06,42,25.70
2012,03,14,06,43,25.70
2012,03,14,06,44,22.50
2012,03,14,06,45,20.90
2012,03,14,06,46,29.00
2012,03,14,06,47,30.60
2012,03,14,06,48,17.70
2012,03,14,06,49,25.70
2012,03,14,06,50,25.70
2012,03,14,06,51,25.70
2012,03,14,06,52,24.20
2012,03,14,06,53,27.40
2012,03,14,06,54,30.60
2012,03,14,06,55,22.50
2012,03,14,06,56,25.70
2012,03,14,06,57,38.60
2012,03,14,06,58,30.60
2012,03,14,06,59,29.00
2012,03,14,07,00,27.40
2012,03,14,07,01,27.40
2012,03,14,07,02,20.90
2012,03,14,07,03,30.60
2012,03,14,07,04,32.20
2012,03,14,07,05,20.90
2012,03,14,07,06,27.40
2012,03,14,07,07,29.00
2012,03,14,07,08,25.70
2012,03,14,07,09,35.40
2012,03,14,07,10,19.30
2012,03,14,07,11,25.70
2012,03,14,07,12,22.50
2012,03,14,07,13,38.60
2012,03,14,07,14,22.50
2012,03,14,07,15,43.50
2012,03,14,07,16,32.20
2012,03,14,07,17,27.40
2012,03,14,07,18,29.00
2012,03,14,07,19,25.70
2012,03,14,07,20,30.60
2012,03,14,07,21,22.50
2012,03,14,07,22,32.20
2012,03,14,07,23,35.40
2012,03,14,07,24,30.60
2012,03,14,07,25,29.00
2012,03,14,07,26,30.60
2012,03,14,07,27,32.20
2012,03,14,07,28,29.00
2012,03,14,07,29,33.80
2012,03,14,07,30,24.20
2012,03,14,07,31,25.70
2012,03,14,07,32,27.40
2012,03,14,07,33,30.60
2012,03,14,07,34,30.60
2012,03,14,07,35,22.50
2012,03,14,07,36,19.30
2012,03,14,07,37,25.70
2012,03,14,07,38,20.90
2012,03,14,07,39,24.20
2012,03,14,07,40,37.00
2012,03,14,07,41,40.20
2012,03,14,07,42,30.60
2012,03,14,07,43,27.40
2012,03,14,07,44,41.80
2012,03,14,07,45,30.60
2012,03,14,07,46,22.50
2012,03,14,07,47,25.70
2012,03,14,07,48,20.90
2012,03,14,07,49,33.80
2012,03,14,07,50,29.00
2012,03,14,07,51,25.70
2012,03,14,07,52,30.60
2012,03,14,07,53,25.70
2012,03,14,07,54,27.40
2012,03,14,07,55,29.00
2012,03,14,07,56,16.10
2012,03,14,07,57,17.70
2012,03,14,07,58,22.50
2012,03,14,07,59,37.00
2012,03,14,08,00,41.80
2012,03,14,08,01,22.50
2012,03,14,08,02,27.40
2012,03,14,08,03,38.60
2012,03,14,08,04,20.90
2012,03,14,08,05,22.50
2012,03,14,08,06,33.80
2012,03,14,08,07,43.50
2012,03,14,08,08,20.90
2012,03,14,08,09,19.30
2012,03,14,08,10,29.00
2012,03,14,08,11,35.40
2012,03,14,08,12,32.20
2012,03,14,08,13,33.80
2012,03,14,08,14,30.60
2012,03,14,08,15,48.30
2012,03,14,08,16,32.20
2012,03,14,08,17,38.60
2012,03,14,08,18,25.70
2012,03,14,08,19,20.90
2012,03,14,08,20,20.90
2012,03,14,08,21,32.20
2012,03,14,08,22,32.20
2012,03,14,08,23,32.20
2012,03,14,08,24,33.80
2012,03,14,08,25,53.10
2012,03,14,08,26,35.40
2012,03,14,08,27,33.80
2012,03,14,08,28,40.20
2012,03,14,08,29,43.50
2012,03,14,08,30,48.30
2012,03,14,08,31,48.30
2012,03,14,08,32,37.00
2012,03,14,08,33,45.10
2012,03,14,08,34,43.50
2012,03,14,08,35,45.10
2012,03,14,08,36,56.30
2012,03,14,08,37,45.10
2012,03,14,08,38,43.50
2012,03,14,08,39,33.80
2012,03,14,08,40,37.00
2012,03,14,08,41,33.80
2012,03,14,08,42,37.00
2012,03,14,08,43,19.30
2012,03,14,08,44,35.40
2012,03,14,08,45,45.10
2012,03,14,08,46,37.00
2012,03,14,08,47,41.80
2012,03,14,08,48,43.50
2012,03,14,08,49,41.80
2012,03,14,08,50,29.00
2012,03,14,08,51,22.50
2012,03,14,08,52,24.20
2012,03,14,08,53,45.10
2012,03,14,08,54,43.50
2012,03,14,08,55,25.70
2012,03,14,08,56,37.00
2012,03,14,08,57,33.80
2012,03,14,08,58,37.00
2012,03,14,08,59,45.10
2012,03,14,09,00,33.80
2012,03,14,09,01,40.20
2012,03,14,09,02,32.20
2012,03,14,09,03,22.50
2012,03,14,09,04,41.80
2012,03,14,09,05,33.80
2012,03,14,09,06,27.40
2012,03,14,09,07,24.20
2012,03,14,09,08,27.40
2012,03,14,09,09,35.40
2012,03,14,09,10,33.80
2012,03,14,09,11,27.40
2012,03,14,09,12,33.80
2012,03,14,09,13,51.50
2012,03,14,09,14,32.20
2012,03,14,09,15,30.60
2012,03,14,09,16,25.70
2012,03,14,09,17,45.10
2012,03,14,09,18,48.30
2012,03,14,09,19,33.80
2012,03,14,09,20,62.70
2012,03,14,09,21,25.70
2012,03,14,09,22,33.80
2012,03,14,09,23,46.70
2012,03,14,09,24,53.10
2012,03,14,09,25,37.00
2012,03,14,09,26,40.20
2012,03,14,09,27,29.00
2012,03,14,09,28,45.10
2012,03,14,09,29,48.30
2012,03,14,09,30,38.60
2012,03,14,09,31,37.00
2012,03,14,09,32,35.40
2012,03,14,09,33,41.80
2012,03,14,09,34,38.60
2012,03,14,09,35,30.60
2012,03,14,09,36,37.00
2012,03,14,09,37,30.60
2012,03,14,09,38,41.80
2012,03,14,09,39,27.40
2012,03,14,09,40,29.00
2012,03,14,09,41,33.80
2012,03,14,09,42,32.20
2012,03,14,09,43,29.00
2012,03,14,09,44,30.60
2012,03,14,09,45,25.70
2012,03,14,09,46,25.70
2012,03,14,09,47,27.40
2012,03,14,09,48,37.00
2012,03,14,09,49,40.20
2012,03,14,09,50,32.20
2012,03,14,09,51,30.60
2012,03,14,09,52,33.80
2012,03,14,09,53,25.70
2012,03,14,09,54,40.20
2012,03,14,09,55,37.00
2012,03,14,09,56,35.40
2012,03,14,09,57,37.00
2012,03,14,09,58,32.20
2012,03,14,09,59,22.50
2012,03,14,10,00,48.30
2012,03,14,10,01,37.00
2012,03,14,10,02,40.20
2012,03,14,10,03,33.80
2012,03,14,10,04,48.30
2012,03,14,10,05,32.20
2012,03,14,10,06,48.30
2012,03,14,10,07,46.70
2012,03,14,10,08,25.70
2012,03,14,10,09,32.20
2012,03,14,10,10,37.00
2012,03,14,10,11,30.60
2012,03,14,10,12,38.60
2012,03,14,10,13,22.50
2012,03,14,10,14,32.20
2012,03,14,10,15,27.40
2012,03,14,10,16,37.00
2012,03,14,10,17,29.00
2012,03,14,10,18,33.80
2012,03,14,10,19,32.20
2012,03,14,10,20,37.00
2012,03,14,10,21,32.20
2012,03,14,10,22,27.40
2012,03,14,10,23,45.10
2012,03,14,10,24,38.60
2012,03,14,10,25,45.10
2012,03,14,10,26,32.20
2012,03,14,10,27,24.20
2012,03,14,10,28,30.60
2012,03,14,10,29,35.40
2012,03,14,10,30,45.10
2012,03,14,10,31,40.20
2012,03,14,10,32,27.40
2012,03,14,10,33,35.40
2012,03,14,10,34,37.00
2012,03,14,10,35,51.50
2012,03,14,10,36,30.60
2012,03,14,10,37,35.40
2012,03,14,10,38,29.00
2012,03,14,10,39,22.50
2012,03,14,10,40,37.00
2012,03,14,10,41,33.80
2012,03,14,10,42,37.00
2012,03,14,10,43,22.50
2012,03,14,10,44,33.80
2012,03,14,10,45,38.60
2012,03,14,10,46,20.90
2012,03,14,10,47,19.30
2012,03,14,10,48,32.20
2012,03,14,10,49,33.80
2012,03,14,10,50,37.00
2012,03,14,10,51,41.80
2012,03,14,10,52,27.40
2012,03,14,10,53,25.70
2012,03,14,10,54,30.60
2012,03,14,10,55,32.20
2012,03,14,10,56,32.20
2012,03,14,10,57,33.80
2012,03,14,10,58,24.20
2012,03,14,10,59,29.00
2012,03,14,11,00,30.60
2012,03,14,11,01,37.00
2012,03,14,11,02,35.40
2012,03,14,11,03,24.20
2012,03,14,11,04,43.50
2012,03,14,11,05,33.80
2012,03,14,11,06,33.80
2012,03,14,11,07,22.50
2012,03,14,11,08,45.10
2012,03,14,11,09,40.20
2012,03,14,11,10,27.40
2012,03,14,11,11,19.30
2012,03,14,11,12,27.40
2012,03,14,11,13,24.20
2012,03,14,11,14,37.00
2012,03,14,11,15,33.80
2012,03,14,11,16,32.20
2012,03,14,11,17,37.00
2012,03,14,11,18,25.70
2012,03,14,11,19,32.20
2012,03,14,11,20,51.50
2012,03,14,11,21,29.00
2012,03,14,11,22,27.40
2012,03,14,11,23,37.00
2012,03,14,11,24,30.60
2012,03,14,11,25,16.10
2012,03,14,11,26,32.20
2012,03,14,11,27,40.20
2012,03,14,11,28,32.20
2012,03,14,11,29,32.20
2012,03,14,11,30,29.00
2012,03,14,11,31,35.40
2012,03,14,11,32,37.00
2012,03,14,11,33,45.10
2012,03,14,11,34,25.70
2012,03,14,11,35,29.00
2012,03,14,11,36,19.30
2012,03,14,11,37,29.00
2012,03,14,11,38,30.60
2012,03,14,11,39,33.80
2012,03,14,11,40,22.50
2012,03,14,11,41,27.40
2012,03,14,11,42,32.20
2012,03,14,11,43,30.60
2012,03,14,11,44,27.40
2012,03,14,11,45,19.30
2012,03,14,11,46,32.20
2012,03,14,11,47,25.70
2012,03,14,11,48,27.40
2012,03,14,11,49,30.60
2012,03,14,11,50,29.00
2012,03,14,11,51,46.70
2012,03,14,11,52,30.60
2012,03,14,11,53,32.20
2012,03,14,11,54,37.00
2012,03,14,11,55,17.70
2012,03,14,11,56,40.20
2012,03,14,11,57,30.60
2012,03,14,11,58,29.00
2012,03,14,11,59,43.50
2012,03,14,12,00,30.60
2012,03,14,12,01,37.00
2012,03,14,12,02,33.80
2012,03,14,12,03,20.90
2012,03,14,12,04,22.50
2012,03,14,12,05,20.90
2012,03,14,12,06,24.20
2012,03,14,12,07,17.70
2012,03,14,12,08,27.40
2012,03,14,12,09,25.70
2012,03,14,12,10,27.40
2012,03,14,12,11,24.20
2012,03,14,12,12,19.30
2012,03,14,12,13,20.90
2012,03,14,12,14,25.70
2012,03,14,12,15,41.80
2012,03,14,12,16,33.80
2012,03,14,12,17,25.70
2012,03,14,12,18,20.90
2012,03,14,12,19,30.60
2012,03,14,12,20,37.00
2012,03,14,12,21,27.40
2012,03,14,12,22,29.00
2012,03,14,12,23,29.00
2012,03,14,12,24,19.30
2012,03,14,12,25,22.50
2012,03,14,12,26,24.20
2012,03,14,12,27,17.70
2012,03,14,12,28,33.80
2012,03,14,12,29,27.40
2012,03,14,12,30,25.70
2012,03,14,12,31,22.50
2012,03,14,12,32,16.10
2012,03,14,12,33,16.10
2012,03,14,12,34,33.80
2012,03,14,12,35,29.00
2012,03,14,12,36,20.90
2012,03,14,12,37,29.00
2012,03,14,12,38,25.70
2012,03,14,12,39,20.90
2012,03,14,12,40,22.50
2012,03,14,12,41,37.00
2012,03,14,12,42,33.80
2012,03,14,12,43,22.50
2012,03,14,12,44,32.20
2012,03,14,12,45,33.80
2012,03,14,12,46,27.40
2012,03,14,12,47,20.90
2012,03,14,12,48,25.70
2012,03,14,12,49,24.20
2012,03,14,12,50,29.00
2012,03,14,12,51,25.70
2012,03,14,12,52,27.40
2012,03,14,12,53,19.30
2012,03,14,12,54,29.00
2012,03,14,12,55,25.70
2012,03,14,12,56,16.10
2012,03,14,12,57,29.00
2012,03,14,12,58,24.20
2012,03,14,12,59,32.20
2012,03,14,13,00,48.30
2012,03,14,13,01,27.40
2012,03,14,13,02,40.20
2012,03,14,13,03,22.50
2012,03,14,13,04,32.20
2012,03,14,13,05,17.70
2012,03,14,13,06,25.70
2012,03,14,13,07,37.00
2012,03,14,13,08,30.60
2012,03,14,13,09,17.70
2012,03,14,13,10,30.60
2012,03,14,13,11,24.20
2012,03,14,13,12,17.70
2012,03,14,13,13,20.90
2012,03,14,13,14,27.40
2012,03,14,13,15,22.50
2012,03,14,13,16,22.50
2012,03,14,13,17,24.20
2012,03,14,13,18,27.40
2012,03,14,13,19,30.60
2012,03,14,13,20,20.90
2012,03,14,13,21,22.50
2012,03,14,13,22,22.50
2012,03,14,13,23,22.50
2012,03,14,13,24,17.70
2012,03,14,13,25,22.50
2012,03,14,13,26,22.50
2012,03,14,13,27,20.90
2012,03,14,13,28,24.20
2012,03,14,13,29,30.60
2012,03,14,13,30,27.40
2012,03,14,13,31,22.50
2012,03,14,13,32,29.00
2012,03,14,13,33,24.20
2012,03,14,13,34,19.30
2012,03,14,13,35,22.50
2012,03,14,13,36,17.70
2012,03,14,13,37,30.60
2012,03,14,13,38,20.90
2012,03,14,13,39,27.40
2012,03,14,13,40,24.20
2012,03,14,13,41,20.90
2012,03,14,13,42,20.90
2012,03,14,13,43,17.70
2012,03,14,13,44,24.20
2012,03,14,13,45,16.10
2012,03,14,13,46,20.90
2012,03,14,13,47,25.70
2012,03,14,13,48,20.90
2012,03,14,13,49,24.20
2012,03,14,13,50,22.50
2012,03,14,13,51,24.20
2012,03,14,13,52,25.70
2012,03,14,13,53,14.50
2012,03,14,13,54,17.70
2012,03,14,13,55,14.50
2012,03,14,13,56,27.40
2012,03,14,13,57,25.70
2012,03,14,13,58,17.70
2012,03,14,13,59,25.70
2012,03,14,14,00,20.90
2012,03,14,14,01,19.30
2012,03,14,14,02,11.30
2012,03,14,14,03,19.30
2012,03,14,14,04,22.50
2012,03,14,14,05,11.30
2012,03,14,14,06,24.20
2012,03,14,14,07,17.70
2012,03,14,14,08,20.90
2012,03,14,14,09,30.60
2012,03,14,14,10,30.60
2012,03,14,14,11,20.90
2012,03,14,14,12,16.10
2012,03,14,14,13,20.90
2012,03,14,14,14,24.20
2012,03,14,14,15,27.40
2012,03,14,14,16,24.20
2012,03,14,14,17,14.50
2012,03,14,14,18,22.50
2012,03,14,14,19,24.20
2012,03,14,14,20,14.50
2012,03,14,14,21,16.10
2012,03,14,14,22,14.50
2012,03,14,14,23,14.50
2012,03,14,14,24,24.20
2012,03,14,14,25,16.10
2012,03,14,14,26,19.30
2012,03,14,14,27,24.20
2012,03,14,14,28,8.10
2012,03,14,14,29,16.10
2012,03,14,14,30,11.30
2012,03,14,14,31,14.50
2012,03,14,14,32,16.10
2012,03,14,14,33,14.50
2012,03,14,14,34,19.30
2012,03,14,14,35,29.00
2012,03,14,14,36,14.50
2012,03,14,14,37,22.50
2012,03,14,14,38,17.70
2012,03,14,14,39,17.70
2012,03,14,14,40,11.30
2012,03,14,14,41,19.30
2012,03,14,14,42,16.10
2012,03,14,14,43,22.50
2012,03,14,14,44,24.20
2012,03,14,14,45,16.10
2012,03,14,14,46,19.30
2012,03,14,14,47,14.50
2012,03,14,14,48,8.10
2012,03,14,14,49,14.50
2012,03,14,14,50,16.10
2012,03,14,14,51,14.50
2012,03,14,14,52,17.70
2012,03,14,14,53,14.50
2012,03,14,14,54,11.30
2012,03,14,14,55,14.50
2012,03,14,14,56,9.60
2012,03,14,14,57,8.10
2012,03,14,14,58,6.40
2012,03,14,14,59,8.10
2012,03,14,15,00,9.60
2012,03,14,15,01,11.30
2012,03,14,15,02,14.50
2012,03,14,15,03,17.70
2012,03,14,15,04,9.60
2012,03,14,15,05,12.90
2012,03,14,15,06,9.60
2012,03,14,15,07,11.30
2012,03,14,15,08,16.10
2012,03,14,15,09,12.90
2012,03,14,15,10,14.50
2012,03,14,15,11,9.60
2012,03,14,15,12,11.30
2012,03,14,15,13,9.60
2012,03,14,15,14,8.10
2012,03,14,15,15,6.40
2012,03,14,15,16,9.60
2012,03,14,15,17,16.10
2012,03,14,15,18,11.30
2012,03,14,15,19,11.30
2012,03,14,15,20,11.30
2012,03,14,15,21,9.60
2012,03,14,15,22,6.40
2012,03,14,15,23,11.30
2012,03,14,15,24,11.30
2012,03,14,15,25,14.50
2012,03,14,15,26,4.80
2012,03,14,15,27,17.70
2012,03,14,15,28,8.10
2012,03,14,15,29,9.60
2012,03,14,15,30,11.30
2012,03,14,15,31,6.40
2012,03,14,15,32,4.80
2012,03,14,15,33,3.20
2012,03,14,15,34,11.30
2012,03,14,15,35,8.10
2012,03,14,15,36,6.40
2012,03,14,15,37,4.80
2012,03,14,15,38,14.50
2012,03,14,15,39,11.30
2012,03,14,15,40,8.10
2012,03,14,15,41,4.80
2012,03,14,15,42,19.30
2012,03,14,15,43,17.70
2012,03,14,15,44,9.60
2012,03,14,15,45,8.10
2012,03,14,15,46,16.10
2012,03,14,15,47,9.60
2012,03,14,15,48,9.60
2012,03,14,15,49,17.70
2012,03,14,15,50,9.60
2012,03,14,15,51,3.20
2012,03,14,15,52,9.60
2012,03,14,15,53,17.70
2012,03,14,15,54,8.10
2012,03,14,15,55,8.10
2012,03,14,15,56,8.10
2012,03,14,15,57,12.90
2012,03,14,15,58,9.60
2012,03,14,15,59,8.10
2012,03,14,16,00,11.30
2012,03,14,16,01,9.60
2012,03,14,16,02,9.60
2012,03,14,16,03,11.30
2012,03,14,16,04,9.60
2012,03,14,16,05,9.60
2012,03,14,16,06,9.60
2012,03,14,16,07,3.20
2012,03,14,16,08,4.80
2012,03,14,16,09,4.80
2012,03,14,16,10,3.20
2012,03,14,16,11,11.30
2012,03,14,16,12,8.10
2012,03,14,16,13,9.60
2012,03,14,16,14,8.10
2012,03,14,16,15,9.60
2012,03,14,16,16,9.60
2012,03,14,16,17,9.60
2012,03,14,16,18,11.30
2012,03,14,16,19,12.90
2012,03,14,16,20,16.10
2012,03,14,16,21,17.70
2012,03,14,16,22,11.30
2012,03,14,16,23,11.30
2012,03,14,16,24,11.30
2012,03,14,16,25,9.60
2012,03,14,16,26,6.40
2012,03,14,16,27,8.10
2012,03,14,16,28,6.40
2012,03,14,16,29,8.10
2012,03,14,16,30,9.60
2012,03,14,16,31,9.60
2012,03,14,16,32,8.10
2012,03,14,16,33,11.30
2012,03,14,16,34,6.40
2012,03,14,16,35,9.60
2012,03,14,16,36,8.10
2012,03,14,16,37,9.60
2012,03,14,16,38,1.60
2012,03,14,16,39,9.60
2012,03,14,16,40,14.50
2012,03,14,16,41,14.50
2012,03,14,16,42,9.60
2012,03,14,16,43,14.50
2012,03,14,16,44,9.60
2012,03,14,16,45,8.10
2012,03,14,16,46,4.80
2012,03,14,16,47,9.60
2012,03,14,16,48,14.50
2012,03,14,16,49,4.80
2012,03,14,16,50,11.30
2012,03,14,16,51,9.60
2012,03,14,16,52,11.30
2012,03,14,16,53,6.40
2012,03,14,16,54,11.30
2012,03,14,16,55,8.10
2012,03,14,16,56,9.60
2012,03,14,16,57,8.10
2012,03,14,16,58,6.40
2012,03,14,16,59,6.40
2012,03,14,17,00,9.60
2012,03,14,17,01,6.40
2012,03,14,17,02,9.60
2012,03,14,17,03,6.40
2012,03,14,17,04,4.80
2012,03,14,17,05,8.10
2012,03,14,17,06,1.60
2012,03,14,17,07,19.30
2012,03,14,17,08,8.10
2012,03,14,17,09,3.20
2012,03,14,17,10,6.40
2012,03,14,17,11,9.60
2012,03,14,17,12,4.80
2012,03,14,17,13,16.10
2012,03,14,17,14,8.10
2012,03,14,17,15,9.60
2012,03,14,17,16,14.50
2012,03,14,17,17,9.60
2012,03,14,17,18,8.10
2012,03,14,17,19,16.10
2012,03,14,17,20,3.20
2012,03,14,17,21,3.20
2012,03,14,17,22,9.60
2012,03,14,17,23,6.40
2012,03,14,17,24,4.80
2012,03,14,17,25,11.30
2012,03,14,17,26,9.60
2012,03,14,17,27,4.80
2012,03,14,17,28,8.10
2012,03,14,17,29,9.60
2012,03,14,17,30,11.30
2012,03,14,17,31,11.30
2012,03,14,17,32,1.60
2012,03,14,17,33,1.60
2012,03,14,17,34,8.10
2012,03,14,17,35,6.40
2012,03,14,17,36,4.80
2012,03,14,17,37,9.60
2012,03,14,17,38,6.40
2012,03,14,17,39,8.10
2012,03,14,17,40,9.60
2012,03,14,17,41,8.10
2012,03,14,17,42,6.40
2012,03,14,17,43,8.10
2012,03,14,17,44,1.60
2012,03,14,17,45,1.60
2012,03,14,17,46,11.30
2012,03,14,17,47,11.30
2012,03,14,17,48,8.10
2012,03,14,17,49,4.80
2012,03,14,17,50,6.40
2012,03,14,17,51,3.20
2012,03,14,17,52,1.60
2012,03,14,17,53,3.20
2012,03,14,17,54,1.60
2012,03,14,17,55,6.40
2012,03,14,17,56,1.60
2012,03,14,17,57,4.80
2012,03,14,17,58,8.10
2012,03,14,17,59,6.40
2012,03,14,18,00,8.10
2012,03,14,18,01,6.40
2012,03,14,18,02,3.20
2012,03,14,18,03,9.60
2012,03,14,18,04,8.10
2012,03,14,18,05,6.40
2012,03,14,18,06,4.80
2012,03,14,18,07,8.10
2012,03,14,18,08,8.10
2012,03,14,18,09,8.10